Simultaneous Nadir Overpasses (SNOs) Predictions

Prediction of SNOs between AQUA and TERRA Satellite Orbit:

Table of predicted SNOs for the next 14.0 days since TLE Epoch: 5/21/2023
Index Date (AQUA) Time (AQUA) Lat,Lon (AQUA) SZA (AQUA ) Date (TERRA) Time (TERRA) Lat,Lon (TERRA) SZA (TERRA ) Distance(km) Time Diff (sec)
1 06/03/2023 16:38:42 73.80, -72.31 51.38 06/03/2023 16:39:47 73.75, -69.38 51.32 91.17 65
2 06/03/2023 17:28:06 -73.81, 95.32 128.61 06/03/2023 17:29:11 -73.73, 98.22 128.71 90.72 65
3 06/03/2023 18:17:28 73.64, -96.65 51.20 06/03/2023 18:18:35 73.56, -94.46 51.13 69.27 67
4 06/03/2023 19:06:51 -73.60, 71.08 128.84 06/03/2023 19:07:58 -73.59, 73.25 128.86 68.05 67
5 06/03/2023 19:56:14 73.47,-121.00 51.03 06/03/2023 19:57:22 73.43,-119.43 50.98 50.19 68
6 06/03/2023 20:45:37 -73.43, 46.73 129.02 06/03/2023 20:46:46 -73.40, 48.18 129.05 46.06 69
7 06/03/2023 21:35:00 73.31,-145.36 50.85 06/03/2023 21:36:10 73.24,-144.49 50.78 28.76 70
8 06/03/2023 22:24:23 -73.27, 22.37 129.19 06/03/2023 22:25:34 -73.22, 23.11 129.25 24.56 71
9 06/03/2023 23:13:46 73.14,-169.73 50.68 06/03/2023 23:14:57 73.10,-169.45 50.64 9.93 71
10 06/04/2023 00:03:09 -73.11, -2.00 129.37 06/04/2023 00:04:21 -73.08, -1.84 129.39 5.79 72
11 06/04/2023 00:52:33 73.03, 165.80 50.56 06/04/2023 00:53:43 73.02, 165.70 50.55 3.37 70
12 06/04/2023 01:41:57 -73.05, -26.58 129.43 06/04/2023 01:43:06 -73.05, -26.59 129.43 0.47 69
13 06/04/2023 02:31:22 73.03, 141.11 50.54 06/04/2023 02:32:27 73.04, 141.06 50.56 2.55 65
14 06/04/2023 03:20:46 -73.04, -51.28 129.45 06/04/2023 03:21:51 -73.02, -51.33 129.47 2.84 65



Historial Predications of SNOs between AQUA and TERRA
